This is the latest recevied weather packets stored in our database for station/object IK1QAD-3. If no packets are shown the sender has not sent any weather packets the latest 1 day(s).
| Time | Temp. | Humidity | Pressure | Rain* | Wind** | Luminosity | Snow |
|---|---|---|---|---|---|---|---|
| 1778080414 | 20.56° C | 68% | 1006.4 hPa | 0 mm | - | - | - |
| 1778079807 | 20° C | 71% | 1006.6 hPa | 0 mm | - | - | - |
| 1778073214 | 20° C | 64% | 1006.9 hPa | 0 mm | - | - | - |
| 1778072606 | 20° C | 66% | 1006.8 hPa | 0 mm | - | - | - |
| 1778071710 | 20° C | 67% | 1006.7 hPa | 0 mm | - | - | - |
| 1778069610 | 19.44° C | 69% | 1006.8 hPa | 0 mm | - | - | - |
| 1778069309 | 19.44° C | 72% | 1006.7 hPa | 0 mm | - | - | - |
| 1778068414 | 18.89° C | 76% | 1006.9 hPa | 0 mm | - | - | - |
| 1778068116 | 18.89° C | 75% | 1006.9 hPa | 0 mm | - | - | - |
| 1778066914 | 18.33° C | 76% | 1006.9 hPa | 0 mm | - | - | - |
| 1778066023 | 18.33° C | 74% | 1007.3 hPa | 0 mm | - | - | - |
| 1778065418 | 18.33° C | 74% | 1007.2 hPa | 0 mm | - | - | - |
| 1778065113 | 18.33° C | 78% | 1007.4 hPa | 0 mm | - | - | - |
| 1778064810 | 18.33° C | 79% | 1007.4 hPa | 0 mm | - | - | - |
| 1778063917 | 17.78° C | 79% | 1007.4 hPa | 0 mm | - | - | - |
| 1778063306 | 17.78° C | 79% | 1007.6 hPa | 0 mm | - | - | - |
| 1778063021 | 17.78° C | 78% | 1007.6 hPa | 0 mm | - | - | - |
| 1778062716 | 17.78° C | 78% | 1007.6 hPa | 0 mm | - | - | - |
| 1778062410 | 17.78° C | 78% | 1007.7 hPa | 0 mm | - | - | - |
| 1778062105 | 17.78° C | 79% | 1007.7 hPa | 0 mm | - | - | - |
| 1778061821 | 17.78° C | 78% | 1007.8 hPa | 0 mm | - | - | - |
| 1778061517 | 17.78° C | 79% | 1007.8 hPa | 0 mm | - | - | - |
| 1778061216 | 17.78° C | 78% | 1007.8 hPa | 0 mm | - | - | - |
| 1778060910 | 17.22° C | 79% | 1007.8 hPa | 0 mm | - | - | - |
| 1778060607 | 17.22° C | 78% | 1007.9 hPa | 0 mm | - | - | - |
* Rain latest hour (hover to see other rain measurements)
** Current wind speed in m/s (hover to see current wind gust speed)